SL-16 DEB, 22415

Orbit data source: Space-Track

SL-16 DEB, 22415 is space debris in LEO originally from a launch on Fri, 25 Dec 1992 UTC launched from the Tyuratam Missile And Space Complex (TTMTR). Debris objects in space refer to the collection of defunct objects orbiting the Earth. Examples of debris include non-operational satellites, rocket bodies, and fragments generated from explosions, collisions, or faulty payload assembly.

Loading next visibility...
Identifier
22415, 1992-093DG
Orbit
LEO
Country
Flag of CISCIS
Related business
Manufacturer
Unknown
Mission
Spacecraft
Bus & Motor
Unknown
Mass
Unknown
Launch date (UTC)
1992-12-25 (33 years ago)
Launch vehicle
Unknown
Launch site
Tyuratam Missile And Space Complex (TTMTR)
Object type
Payload
Rocket body
Debris
Shape & HBR
Unknown shape, 0.1 m
Radar Cross Section
Small (<0.1 m²)

Expand to show TLE details & history
Last TLE update: 15 hours ago

TLE from 15 hours ago
0 SL-16 DEB
1 22415U 92093DG  26133.19271031  .00000058  00000-0  58929-4 0  9996
2 22415  71.1154 201.0784 0120666   3.9010 356.3019 14.06053500704092
Epoch: 2026-05-13T04:37Z
TLE epoch observation values (Epoch: 2026-05-13T04:37:30.170Z)
Latitude
-0.00007°
Longitude
-99.25359°
Altitude
787.985 km
Speed
7.505 km/s
True Right ascension
13h 24m 18s
True Declination
0° 00' 00"
Sunlit
Object was in full shadow at epoch
Visualization orbit readout
Latitude
Unknown
Longitude
Unknown
Altitude
Unknown
Speed
Unknown
Apparent Right ascension
Unknown
Apparent Declination
Unknown
Sunlit
N/A
Visualization observer readout
Local Sidereal Time
03:57:52
Azimuth
Unknown
Elevation
Unknown
Doppler factor
Unknown
Orbital elements
Apogee altitude
958.301 km
Perigee altitude
783.36 km
Semi-major axis
7,248.967 km
Eccentricity
0.01207
Inclination
71.1154°
RAAN
201.0784°
Arg. of periapsis
3.901°
True anomaly
356.21135°
Mean anomaly
356.3019°
Eccentric anomaly
356.25676°
Mean motion
3.51665 °/min
Orbital period
102.37 mins
BSTAR
0.000058929
Loading maneuver chart data...
Computing Atmospheric mass density...
Loading historical data...
Loading historical data...
Loading historical data...
Loading historical data...
Loading historical data...
Loading historical data...
Loading historical data...

Documentation

Showing up to 5 results
|